Weather Roundup
Issued by NWS

Home | Current Version | Previous Version | Graphics & Text | Print | Product List | Glossary Off
Versions: 1 2 3 4 5 6 7 8 9 10 11 12 13 14 15 16 17 18 19 20 21 22 23 24 25 26 27 28 29 30 31 32 33 34 35 36 37 38 39 40 41 42 43 44 45 46 47 48 49 50

241
NZUS93 KARX 230359
HRRWXR

CURRENT HOURLY OBSERVATIONS ACROSS
MUCH OF THE UPPER MISSISSIPPI VALLEY
NATIONAL WEATHER SERVICE LA CROSSE WI
1000 PM CST MON JAN 22 2018


...SOUTHEAST MINNESOTA...


CITY           SKY/WX    TMP DP  RH WIND       PRES   REMARKS
ROCHESTER      CLOUDY    27  26  96 N20       29.65R FOG     WCI  13
ROCHESTER/MAYO CLOUDY    28  27  96 N6        29.67R WCI  21
WINONA         CLOUDY    32  28  86 N8G16     29.64R WCI  25
AUSTIN         LGT SNOW  27  23  86 N16G22    29.65R WCI  14
ALBERT LEA     LGT SNOW  27  23  86 N17G25    29.68R WCI  14
DODGE CENTER   LGT SNOW  25  23  93 N18       29.68R WCI  11
PRESTON        CLOUDY    28  26  91 N14G20    29.61R FOG     WCI  17
OWATONNA         N/A     27  23  86 N22G28    29.73R WCI  12
FARIBAULT      LGT SNOW  27  25  93 N12G21    29.76R WCI  16
$$

...ELSEWHERE IN MINNESOTA...


CITY           SKY/WX    TMP DP  RH WIND       PRES   REMARKS
MINNEAPOLIS    LGT SNOW  27  26  96 N17       29.78R BLWGSNOWWCI  14
INTNL FALLS    CLOUDY    15   9  76 NE10      30.01F WCI   2
DULUTH         CLOUDY    19  13  77 N13G21    29.85S WCI   6
RED WING       LGT SNOW  28  21  74 N10G18    29.73R WCI  19
REDWOOD FALLS  CLOUDY    28  22  78 N12G26    29.86R WCI  18
MANKATO        LGT SNOW  26  25  96 N21       29.79R FOG     WCI  12
WORTHINGTON    LGT SNOW  26  24  92 N28G35    29.82R FOG     WCI  10
FAIRMONT       LGT SNOW  27  26  96 N25G31    29.77R FOG     WCI  12
$$

...SOUTHWEST WISCONSIN...


CITY           SKY/WX    TMP DP  RH WIND       PRES   REMARKS
LA CROSSE      CLOUDY    34  31  88 N12G22    29.60R WCI  25
PRAIRIE DU CHI CLOUDY    34  32  92 NW7       29.54S FOG     WCI  28
BOSCOBEL       CLOUDY    35  32  88 N10       29.54F WCI  27
LONE ROCK      CLOUDY    33  32  96 N8        29.55S WCI  26
PLATTEVILLE    CLOUDY    34  34 100 NE8       29.51R WCI  27
FORT MC COY    MIX PCPN  32  30  94 N6        29.60R WCI  26
MAUSTON-NEW LI CLOUDY    32  30  92 N5        29.56R FOG     WCI  27
VIROQUA        CLOUDY    32  32 100 NE13      29.55R WCI  22
WIS DELLS      CLOUDY    31  30  96 NE5       29.54R WCI  26
$$

...ELSEWHERE IN WISCONSIN...


CITY           SKY/WX    TMP DP  RH WIND       PRES   REMARKS
MILWAUKEE      MOCLDY    37  35  92 NE8       29.45R WCI  31
MADISON        LGT SNOW  32  31  96 N8        29.53R FOG     WCI  25
GREEN BAY      CLOUDY    30  28  92 N21G28    29.53F WCI  17
EAU CLAIRE     LGT SNOW  27  24  89 N9        29.69R FOG     WCI  18
BLACK RVR FLS  CLOUDY    32  32  99 NE7       29.61R WCI  26
MEDFORD        CLOUDY    25  22  87 N13       29.61R WCI  14
WAUSAU         CLOUDY    28  24  85 N8        29.57S WCI  20
WIS RAPIDS     NOT AVBL
MARSHFIELD     CLOUDY    28  25  88 NE14      29.57S WCI  17
RICE LAKE        N/A     25  22  88 N15G24    29.74R WCI  13
$$

...NORTHEAST IOWA...


CITY           SKY/WX    TMP DP  RH WIND       PRES   REMARKS
WATERLOO       LGT SNOW  33  32  96 N12       29.57R FOG     WCI  24
DUBUQUE        CLOUDY    35  34  96 NE12      29.50R FOG     WCI  27
DECORAH        CLOUDY    32  32 100 N14G21    29.55R FOG     WCI  22
MASON CITY     LGT SNOW  27  25  92 N24G35    29.66R FOG     WCI  12
CHARLES CITY   LGT RAIN  32  32 100 N23G31    29.60R WCI  19
OELWEIN        MIX PCPN  34  32  93 N14       29.55R WCI  24
$$

...ELSEWHERE IN IOWA...


CITY           SKY/WX    TMP DP  RH WIND       PRES   REMARKS
DES MOINES     LGT SNOW  32  29  88 N20G30    29.62R VSB 1   WCI  20
IOWA CITY      CLOUDY    36  32  85 W5        29.54R WCI  32
FORT DODGE     LGT SNOW  28  25  88 N15G29    29.70R FOG     WCI  16
MARSHALLTOWN   CLOUDY    33  32  96 N23G29    29.57R WCI  21
CEDAR RAPIDS   CLOUDY    35  32  88 NW3       29.51R
$$

...NORTHERN ILLINOIS...


CITY           SKY/WX    TMP DP  RH WIND       PRES   REMARKS
CHICAGO-OHARE  MOCLDY    40  35  83 SW10      29.49R WCI  33
CHICAGO-MIDWAY CLOUDY    41  34  76 SW10      29.50S
MOLINE         MOCLDY    33  29  85 S8        29.51S WCI  26
ROCKFORD       LGT RAIN  38  37  97 W7        29.51R WCI  33
PEORIA         CLOUDY    39  34  82 SW13      29.54S WCI  31
$$

NOTE: "FAIR" INDICATES FEW OR NO CLOUDS BELOW 12,000 FEET WITH NO
SIGNIFICANT WEATHER AND/OR OBSTRUCTIONS TO VISIBILITY. WIND
SPEEDS ARE IN MILES-PER-HOUR.




USA.gov is the U.S. government's official web portal to all federal, state and local government web resources and services.